QPF
0.00 0.00 0.00 0.00 0.00 0.00 0.00 0.00 0.00 0.00 0.00 0.00 0.00 0.00 0.00 0.00 0.00 0.00 0.00 0.00 0.00 0.00 0.00 0.01 0.00 0.00 0.00 0.00 0.00 0.00 0.00 0.00 0.00 0.00 0.00 0.00 0.00 0.00 0.00 0.00 0.00 0.00 0.01 0.00 0.00 0.00 0.00 0.00 0.00
0.00 0.00 0.00 0.00 0.00 0.00 0.00 0.00 0.00 0.00 0.00 0.00 0.00 0.00 0.00 0.00 0.00 0.00 0.00 0.01 0.00 0.00 0.00 0.00 0.00 0.00 0.00 0.00 0.00 0.00 0.00 0.00 0.00 0.00 0.00 0.00 0.00 0.00 0.00 0.00 0.00 0.00 0.00 0.00 0.00 0.00 0.00 0.00 0.00
0.00 0.00 0.00 0.00 0.00 0.00 0.00 0.00 0.00 0.00 0.00 0.00 0.00 0.00 0.00 0.00 0.00 0.00 0.00 0.00 0.00 0.00 0.00 0.00 0.00 0.01 0.00 0.00 0.00 0.00 0.00 0.01 0.01 0.00 0.00 0.00 0.00 0.00 0.00 0.00 0.00 0.00 0.00 0.00 0.00 0.00 0.01 0.00 0.00
0.00 0.00 0.00 0.00 0.00 0.00 0.00 0.00 0.00 0.00 0.00 0.00 0.00 0.00 0.00 0.00 0.00 0.00 0.00 0.00 0.00 0.00 0.00 0.00 0.00 0.00 0.00 0.00 0.00 0.00 0.00 0.01 0.01 0.00 0.00 0.00 0.00 0.00 0.00 0.00 0.00 0.00 0.00 0.00 0.00 0.00 0.00 0.00 0.00
0.00 0.00 0.00 0.00 0.00 0.00 0.00 0.00 0.00 0.00 0.00 0.00 0.00 0.00 0.00 0.00 0.00 0.00 0.00 0.00 0.00 0.00 0.00 0.00 0.00 0.00 0.00 0.00 0.00 0.00 0.00 0.00 0.00 0.00 0.00 0.00 0.00 0.00 0.00 0.00 0.00 0.00 0.00 0.00 0.00 0.00 0.00 0.00 0.00
0.00 0.00 0.00 0.00 0.00 0.00 0.00 0.00 0.00 0.00 0.00 0.00 0.00 0.00 0.00 0.00 0.00 0.00 0.00 0.00 0.00 0.00 0.00 0.00 0.00 0.00 0.00 0.00 0.00 0.00 0.00 0.00 0.00 0.00 0.00 0.00 0.00 0.00 0.00 0.00 0.00 0.00 0.00 0.00 0.00 0.00 0.00 0.00 0.00
0.00 0.00 0.00 0.00 0.00 0.00 0.00 0.00 0.00 0.00 0.00 0.00 0.00 0.00 0.00 0.00 0.00 0.00 0.00 0.00 0.00 0.00 0.00 0.00 0.00 0.00 0.00 0.00 0.00 0.00 0.00 0.00 0.00 0.00 0.00 0.00 0.00 0.00 0.00 0.00 0.00 0.00 0.00 0.00 0.00 0.00 0.00 0.00 0.00
0.00 0.00 0.00 0.00 0.00 0.00 0.00 0.00 0.00 0.00 0.00 0.00 0.00 0.00 0.00 0.00 0.00 0.00 0.00 0.00 0.00 0.00 0.00 0.00 0.00 0.00 0.00 0.00 0.00 0.00 0.00 0.00 0.00 0.00 0.00 0.00 0.00 0.00 0.00 0.00 0.00 0.00 0.00 0.00 0.00 0.00 0.00 0.00 0.00
0.00 0.00 0.00 0.00 0.00 0.00 0.00 0.00 0.00 0.00 0.00 0.00 0.00 0.00 0.00 0.00 0.00 0.00 0.00 0.00 0.00 0.00 0.00 0.00 0.00 0.00 0.00 0.00 0.00 0.00 0.00 0.00 0.00 0.00 0.00 0.00 0.00 0.00 0.00 0.00 0.00 0.00 0.00 0.00 0.00 0.00 0.00 0.00 0.00
0.00 0.00 0.00 0.00 0.00 0.00 0.00 0.00 0.00 0.00 0.00 0.00 0.00 0.00 0.00 0.00 0.00 0.00 0.00 0.00 0.00 0.00 0.00 0.00 0.00 0.00 0.00 0.00 0.00 0.00 0.00 0.00 0.00 0.00 0.00 0.00 0.00 0.00 0.00 0.00 0.00 0.00 0.00 0.00 0.00 0.00 0.00 0.00 0.00
0.00 0.00 0.00 0.00 0.00 0.00 0.00 0.00 0.00 0.00 0.00 0.00 0.00 0.00 0.00 0.00 0.00 0.00 0.00 0.00 0.00 0.00 0.00 0.00 0.00 0.00 0.00 0.00 0.00 0.00 0.00 0.00 0.00 0.00 0.00 0.00 0.00 0.00 0.00 0.00 0.00 0.00 0.00 0.00 0.00 0.00 0.00 0.00 0.00
0.00 0.00 0.00 0.00 0.00 0.00 0.00 0.00 0.00 0.00 0.00 0.00 0.00 0.00 0.00 0.00 0.00 0.00 0.00 0.00 0.00 0.00 0.00 0.00 0.00 0.00 0.00 0.00 0.00 0.00 0.00 0.00 0.00 0.00 0.00 0.00 0.00 0.00 0.00 0.00 0.00 0.00 0.00 0.00 0.00 0.00 0.00 0.00 0.00
0.00 0.00 0.00 0.00 0.00 0.00 0.00 0.00 0.00 0.00 0.00 0.00 0.00 0.00 0.00 0.00 0.00 0.00 0.00 0.00 0.00 0.00 0.00 0.00 0.00 0.00 0.00 0.00 0.00 0.00 0.00 0.00 0.00 0.00 0.00 0.00 0.00 0.00 0.00 0.00 0.00 0.00 0.00 0.00 0.00 0.00 0.00 0.00 0.00
0.00 0.00 0.00 0.00 0.00 0.00 0.00 0.00 0.00 0.00 0.00 0.00 0.00 0.00 0.00 0.00 0.00 0.00 0.00 0.00 0.00 0.00 0.00 0.00 0.00 0.00 0.00 0.00 0.00 0.00 0.00 0.00 0.00 0.00 0.00 0.00 0.00 0.00 0.00 0.00 0.00 0.00 0.00 0.00 0.00 0.00 0.00 0.00 0.00
0.00 0.00 0.00 0.00 0.00 0.00 0.00 0.00 0.00 0.00 0.00 0.00 0.00 0.00 0.00 0.00 0.00 0.00 0.00 0.00 0.00 0.00 0.00 0.00 0.00 0.00 0.00 0.00 0.00 0.00 0.00 0.00 0.00 0.00 0.00 0.00 0.00 0.00 0.00 0.00 0.00 0.00 0.00 0.00 0.00 0.00 0.00 0.00 0.00
0.00 0.00 0.00 0.00 0.00 0.00 0.00 0.00 0.00 0.00 0.00 0.00 0.00 0.00 0.00 0.00 0.00 0.00 0.00 0.00 0.00 0.00 0.00 0.00 0.00 0.00 0.00 0.00 0.00 0.00 0.00 0.00 0.00 0.00 0.00 0.00 0.00 0.00 0.00 0.00 0.00 0.00 0.00 0.00 0.00 0.00 0.00 0.00 0.00
0.00 0.00 0.00 0.00 0.00 0.00 0.00 0.00 0.00 0.00 0.00 0.00 0.00 0.00 0.00 0.00 0.00 0.00 0.00 0.00 0.00 0.00 0.00 0.00 0.00 0.00 0.00 0.00 0.00 0.00 0.00 0.00 0.00 0.00 0.00 0.00 0.00 0.00 0.00 0.00 0.00 0.00 0.00 0.00 0.00 0.00 0.00 0.00 0.00
0.00 0.00 0.00 0.00 0.00 0.00 0.00 0.00 0.00 0.00 0.00 0.00 0.00 0.00 0.00 0.00 0.00 0.00 0.00 0.00 0.00 0.00 0.00 0.00 0.00 0.00 0.00 0.00 0.00 0.00 0.00 0.00 0.00 0.00 0.00 0.00 0.00 0.00 0.00 0.00 0.00 0.00 0.00 0.00 0.00 0.00 0.00 0.00 0.00
0.00 0.00 0.00 0.00 0.00 0.00 0.00 0.00 0.00 0.00 0.00 0.00 0.00 0.00 0.00 0.00 0.00 0.00 0.00 0.00 0.00 0.00 0.00 0.00 0.00 0.00 0.00 0.00 0.00 0.00 0.00 0.00 0.00 0.00 0.00 0.00 0.00 0.00 0.00 0.00 0.00 0.00 0.00 0.00 0.00 0.00 0.00 0.00 0.00
0.00 0.00 0.00 0.00 0.00 0.00 0.00 0.00 0.00 0.00 0.00 0.00 0.00 0.00 0.00 0.00 0.00 0.00 0.00 0.00 0.00 0.00 0.00 0.00 0.00 0.00 0.00 0.00 0.00 0.00 0.00 0.00 0.00 0.00 0.01 0.00 0.00 0.00 0.00 0.00 0.00 0.00 0.00 0.00 0.00 0.00 0.00 0.00 0.00
0.00 0.00 0.00 0.00 0.00 0.00 0.00 0.00 0.00 0.00 0.00 0.00 0.00 0.00 0.00 0.00 0.00 0.00 0.00 0.00 0.00 0.00 0.00 0.00 0.00 0.00 0.00 0.00 0.00 0.00 0.00 0.00 0.00 0.00 0.01 0.01 0.01 0.01 0.01 0.01 0.01 0.00 0.00 0.00 0.00 0.00 0.00 0.00 0.00
0.00 0.00 0.00 0.00 0.00 0.00 0.00 0.00 0.00 0.00 0.00 0.00 0.00 0.00 0.00 0.00 0.00 0.00 0.00 0.00 0.00 0.00 0.00 0.00 0.00 0.00 0.00 0.00 0.00 0.00 0.00 0.00 0.00 0.00 0.00 0.01 0.01 0.02 0.02 0.02 0.03 0.02 0.01 0.01 0.02 0.03 0.02 0.01 0.00
0.00 0.00 0.00 0.00 0.00 0.00 0.00 0.00 0.00 0.00 0.00 0.00 0.00 0.00 0.00 0.00 0.00 0.00 0.00 0.00 0.00 0.00 0.00 0.00 0.00 0.00 0.00 0.00 0.00 0.00 0.00 0.00 0.00 0.00 0.00 0.00 0.00 0.01 0.01 0.01 0.01 0.01 0.02 0.02 0.01 0.00 0.00 0.01 0.00
0.00 0.00 0.00 0.00 0.00 0.00 0.00 0.00 0.00 0.00 0.00 0.00 0.00 0.00 0.00 0.00 0.00 0.00 0.00 0.00 0.00 0.00 0.00 0.00 0.00 0.00 0.00 0.00 0.00 0.00 0.00 0.00 0.00 0.00 0.00 0.00 0.00 0.00 0.00 0.00 0.00 0.00 0.00 0.00 0.00 0.00 0.00 0.00 0.00
0.00 0.00 0.00 0.00 0.00 0.00 0.00 0.00 0.00 0.00 0.00 0.00 0.00 0.00 0.00 0.00 0.00 0.00 0.00 0.00 0.00 0.00 0.00 0.00 0.00 0.00 0.00 0.00 0.00 0.00 0.00 0.00 0.01 0.01 0.00 0.00 0.00 0.00 0.00 0.00 0.00 0.00 0.00 0.00 0.00 0.00 0.00 0.00 0.00
0.00 0.00 0.00 0.00 0.00 0.00 0.00 0.00 0.00 0.00 0.00 0.00 0.00 0.00 0.00 0.00 0.00 0.00 0.00 0.00 0.00 0.00 0.00 0.00 0.00 0.00 0.00 0.00 0.00 0.00 0.00 0.00 0.00 0.00 0.00 0.00 0.00 0.00 0.00 0.00 0.00 0.00 0.00 0.00 0.00 0.00 0.00 0.00 0.00
0.00 0.00 0.00 0.00 0.00 0.00 0.00 0.00 0.00 0.00 0.00 0.00 0.00 0.00 0.00 0.00 0.00 0.00 0.00 0.00 0.00 0.00 0.00 0.00 0.00 0.00 0.00 0.00 0.00 0.00 0.00 0.00 0.00 0.00 0.00 0.00 0.00 0.00 0.00 0.00 0.00 0.00 0.00 0.00 0.00 0.00 0.00 0.00 0.00
0.00 0.00 0.00 0.00 0.00 0.00 0.00 0.00 0.00 0.00 0.00 0.00 0.00 0.00 0.00 0.00 0.00 0.00 0.00 0.00 0.00 0.00 0.00 0.00 0.00 0.00 0.00 0.00 0.00 0.00 0.00 0.00 0.00 0.00 0.00 0.00 0.00 0.00 0.00 0.00 0.00 0.00 0.00 0.00 0.00 0.00 0.00 0.00 0.00
0.00 0.00 0.00 0.00 0.00 0.00 0.00 0.00 0.00 0.00 0.00 0.00 0.00 0.00 0.00 0.00 0.00 0.00 0.00 0.00 0.00 0.00 0.00 0.00 0.00 0.00 0.00 0.00 0.00 0.00 0.00 0.00 0.00 0.00 0.00 0.00 0.00 0.00 0.00 0.00 0.00 0.00 0.00 0.00 0.00 0.00 0.00 0.00 0.00
0.00 0.00 0.00 0.00 0.00 0.00 0.00 0.00 0.00 0.00 0.00 0.00 0.00 0.00 0.00 0.00 0.00 0.00 0.00 0.00 0.00 0.00 0.00 0.00 0.00 0.00 0.00 0.00 0.00 0.00 0.00 0.00 0.00 0.00 0.00 0.00 0.00 0.00 0.00 0.00 0.00 0.00 0.00 0.00 0.00 0.00 0.00 0.00 0.00
MSLP
1013.10 1013.10 1013.21 1013.79 1015.75 1016.96 1017.35 1017.32 1017.14 1017.19 1017.42 1017.52 1017.78 1018.27 1018.78 1019.04 1019.55 1020.49 1020.06 1020.05 1019.92 1019.96 1020.14 1020.30 1020.53 1020.85 1021.02 1021.05 1021.06 1021.22 1021.42 1021.58 1021.62 1021.72 1021.80 1021.89 1022.00 1022.04 1022.12 1022.16 1022.14 1022.12 1022.26 1022.37 1022.46 1022.68 1022.79 1022.96 1023.10
1013.17 1013.01 1013.76 1015.19 1016.78 1017.81 1017.74 1017.25 1017.28 1017.22 1017.60 1017.79 1017.96 1018.53 1018.97 1019.51 1019.56 1019.94 1020.11 1020.04 1019.95 1020.17 1020.30 1020.51 1020.77 1021.08 1021.28 1021.38 1021.42 1021.52 1021.63 1021.67 1021.78 1022.04 1022.13 1022.27 1022.34 1022.47 1022.60 1022.56 1022.51 1022.59 1022.67 1022.81 1022.84 1023.09 1023.21 1023.26 1023.32
1013.04 1013.33 1015.03 1016.35 1017.72 1017.91 1017.65 1017.11 1017.21 1017.39 1017.65 1017.84 1018.42 1018.71 1019.02 1019.48 1019.78 1019.93 1019.80 1019.85 1020.12 1020.40 1020.50 1020.63 1020.88 1021.22 1021.56 1021.74 1021.80 1021.84 1021.92 1021.93 1022.13 1022.40 1022.57 1022.67 1022.93 1022.98 1023.01 1023.12 1023.14 1023.12 1023.09 1023.34 1023.45 1023.52 1023.69 1023.76 1023.95
1013.58 1014.44 1016.51 1016.99 1017.59 1017.32 1017.26 1017.05 1017.11 1017.55 1017.67 1017.89 1018.42 1019.02 1019.23 1019.11 1019.36 1019.55 1019.75 1019.99 1020.28 1020.53 1020.73 1020.92 1021.08 1021.32 1021.74 1022.03 1022.10 1022.21 1022.35 1022.38 1022.45 1022.75 1022.97 1023.12 1023.26 1023.45 1023.45 1023.49 1023.59 1023.63 1023.74 1023.86 1024.00 1024.13 1024.12 1024.23 1024.47
1014.16 1015.63 1016.98 1017.70 1017.53 1017.21 1016.92 1017.02 1017.13 1017.66 1017.74 1018.05 1018.32 1019.29 1019.63 1019.52 1019.35 1019.72 1020.05 1020.11 1020.40 1020.74 1020.86 1021.11 1021.19 1021.46 1021.84 1022.05 1022.30 1022.49 1022.66 1022.80 1022.87 1023.04 1023.37 1023.52 1023.61 1023.76 1023.90 1023.96 1024.01 1024.14 1024.22 1024.28 1024.51 1024.55 1024.53 1024.72 1024.89
1015.20 1016.46 1017.59 1018.09 1017.70 1017.17 1016.83 1016.87 1017.12 1017.62 1017.95 1018.22 1018.60 1019.35 1019.95 1019.74 1019.59 1020.00 1020.20 1020.39 1020.42 1020.73 1021.11 1021.38 1021.38 1021.46 1021.92 1022.33 1022.54 1022.74 1022.96 1023.13 1023.26 1023.40 1023.65 1023.80 1023.96 1024.16 1024.29 1024.45 1024.51 1024.58 1024.67 1024.83 1024.98 1025.05 1025.19 1025.30 1025.41
1016.00 1017.18 1018.20 1018.17 1017.81 1017.09 1016.71 1016.50 1016.96 1017.51 1017.90 1018.09 1018.38 1019.62 1020.28 1020.08 1019.96 1019.92 1020.33 1020.52 1020.71 1020.78 1021.29 1021.66 1021.65 1021.59 1021.95 1022.27 1022.56 1022.85 1023.14 1023.37 1023.58 1023.75 1023.96 1024.09 1024.29 1024.48 1024.68 1024.84 1024.91 1025.05 1025.20 1025.34 1025.43 1025.55 1025.66 1025.72 1025.81
1016.61 1017.57 1018.41 1018.19 1017.85 1017.05 1016.60 1016.56 1016.67 1017.17 1017.80 1018.04 1018.20 1019.15 1019.96 1019.61 1020.09 1020.19 1020.66 1021.04 1021.18 1021.28 1021.51 1021.84 1022.03 1022.05 1022.10 1022.50 1022.77 1023.05 1023.38 1023.62 1023.86 1024.09 1024.31 1024.47 1024.63 1024.84 1025.01 1025.14 1025.21 1025.31 1025.47 1025.60 1025.73 1025.90 1026.05 1026.16 1026.20
1016.86 1017.76 1018.09 1017.92 1017.74 1017.04 1016.76 1016.83 1016.97 1017.09 1017.50 1018.07 1018.32 1018.52 1018.67 1019.34 1020.12 1020.50 1020.97 1021.26 1021.54 1021.74 1021.89 1022.14 1022.42 1022.47 1022.34 1022.37 1022.81 1023.18 1023.56 1023.83 1024.15 1024.43 1024.68 1024.89 1025.09 1025.26 1025.41 1025.47 1025.53 1025.66 1025.76 1025.84 1025.94 1026.13 1026.32 1026.41 1026.41
1017.16 1017.72 1017.65 1017.45 1017.32 1017.28 1016.91 1016.93 1017.06 1017.34 1017.73 1018.10 1018.47 1018.70 1018.89 1019.67 1020.05 1020.50 1020.64 1021.08 1021.38 1021.79 1022.12 1022.18 1022.46 1022.79 1022.87 1022.79 1023.04 1023.39 1023.79 1024.14 1024.43 1024.70 1024.97 1025.27 1025.42 1025.56 1025.70 1025.75 1025.86 1026.00 1026.10 1026.15 1026.24 1026.41 1026.61 1026.78 1026.85
1017.21 1017.50 1017.53 1017.44 1016.98 1017.12 1017.21 1016.85 1017.00 1017.30 1017.89 1017.59 1017.78 1018.74 1019.13 1019.59 1020.17 1020.47 1020.68 1020.88 1021.14 1021.40 1021.90 1022.19 1022.43 1022.81 1023.09 1023.16 1023.45 1023.82 1024.10 1024.38 1024.63 1024.89 1025.12 1025.37 1025.67 1025.89 1026.04 1026.18 1026.33 1026.41 1026.46 1026.61 1026.72 1026.87 1027.01 1027.08 1027.16
1017.20 1017.05 1017.00 1016.96 1016.96 1017.01 1017.36 1017.37 1017.08 1017.16 1016.66 1016.69 1017.16 1017.93 1018.78 1019.26 1019.67 1019.98 1020.55 1020.93 1021.22 1021.52 1021.70 1022.09 1022.27 1022.68 1022.95 1023.37 1023.58 1023.69 1024.07 1024.38 1024.83 1025.03 1025.19 1025.51 1025.78 1025.97 1026.25 1026.43 1026.56 1026.69 1026.77 1026.85 1026.97 1027.07 1027.06 1027.16 1027.26
1016.82 1016.76 1016.72 1016.48 1016.82 1017.06 1017.09 1017.21 1017.32 1016.84 1016.57 1016.83 1017.53 1018.40 1018.58 1018.92 1019.44 1019.82 1020.00 1020.69 1020.93 1021.19 1021.56 1021.93 1022.35 1022.52 1022.99 1023.25 1023.59 1023.85 1024.25 1024.43 1024.74 1025.12 1025.34 1025.61 1025.98 1026.23 1026.36 1026.50 1026.67 1026.80 1026.88 1027.01 1027.11 1027.24 1027.37 1027.47 1027.43
1016.51 1016.64 1016.77 1017.00 1017.23 1017.24 1017.53 1017.02 1017.22 1016.43 1016.62 1017.37 1017.79 1018.31 1018.56 1018.81 1018.99 1019.77 1020.14 1020.19 1020.91 1021.04 1021.21 1021.53 1022.00 1022.26 1022.74 1023.14 1023.37 1023.75 1024.07 1024.37 1024.56 1024.88 1025.21 1025.62 1025.96 1026.21 1026.37 1026.56 1026.66 1026.73 1026.78 1026.86 1027.05 1027.27 1027.49 1027.65 1027.67
1016.80 1017.29 1017.41 1017.30 1017.29 1017.53 1017.44 1017.43 1016.83 1016.47 1017.09 1017.63 1018.16 1018.51 1018.74 1018.79 1019.06 1019.15 1019.50 1019.80 1020.29 1020.70 1020.96 1021.28 1021.70 1022.09 1022.33 1022.76 1023.22 1023.48 1023.82 1024.31 1024.55 1024.65 1024.87 1025.23 1025.64 1025.93 1026.14 1026.40 1026.66 1026.76 1026.89 1027.07 1027.18 1027.24 1027.34 1027.49 1027.61
1017.36 1017.68 1017.78 1017.38 1017.43 1017.46 1017.80 1017.38 1016.59 1016.60 1017.14 1017.89 1018.39 1018.72 1018.78 1018.68 1018.42 1018.75 1019.31 1019.67 1020.01 1020.43 1020.78 1021.09 1021.19 1021.84 1022.08 1022.37 1022.75 1023.19 1023.58 1023.93 1024.26 1024.49 1024.71 1024.97 1025.26 1025.60 1025.96 1026.26 1026.46 1026.55 1026.80 1027.06 1027.24 1027.40 1027.50 1027.62 1027.68
1017.93 1017.90 1018.07 1017.80 1017.52 1017.45 1017.81 1017.55 1016.58 1016.69 1017.21 1017.73 1018.24 1018.58 1018.70 1018.69 1018.62 1018.54 1018.79 1019.09 1019.68 1020.02 1020.54 1020.57 1021.00 1021.60 1021.92 1022.20 1022.47 1022.85 1023.30 1023.61 1023.84 1024.18 1024.45 1024.68 1024.95 1025.22 1025.65 1026.01 1026.19 1026.46 1026.69 1026.84 1027.02 1027.28 1027.48 1027.59 1027.61
1018.04 1018.33 1017.99 1017.56 1017.76 1017.57 1017.54 1017.27 1017.07 1017.08 1017.49 1017.42 1017.75 1018.31 1018.70 1018.29 1017.84 1017.78 1018.28 1018.60 1019.08 1019.52 1019.95 1020.26 1020.44 1021.01 1021.40 1021.77 1022.14 1022.62 1023.01 1023.28 1023.30 1023.62 1023.93 1024.18 1024.46 1024.77 1025.18 1025.50 1025.80 1026.23 1026.65 1026.88 1027.07 1027.17 1027.35 1027.47 1027.46
1017.82 1018.27 1018.08 1017.86 1017.75 1017.80 1017.39 1017.30 1016.97 1017.06 1017.70 1017.76 1017.72 1017.99 1018.08 1017.85 1017.15 1017.62 1017.94 1018.24 1018.65 1019.14 1019.45 1019.68 1020.14 1020.52 1021.12 1021.72 1022.22 1022.40 1022.56 1022.87 1022.92 1023.07 1023.51 1023.88 1024.11 1024.35 1024.84 1025.12 1025.43 1025.68 1026.01 1026.23 1026.54 1026.87 1027.05 1027.22 1027.36
1018.02 1018.46 1018.58 1018.27 1018.04 1018.32 1017.70 1017.32 1016.84 1016.92 1016.94 1016.95 1017.07 1017.40 1017.31 1017.37 1017.32 1017.25 1017.56 1017.81 1017.87 1018.44 1018.82 1019.15 1019.22 1019.95 1020.42 1020.77 1021.16 1021.52 1021.96 1022.27 1022.16 1022.47 1022.79 1023.08 1023.51 1023.96 1024.27 1024.61 1024.92 1025.26 1025.65 1025.93 1026.16 1026.57 1026.95 1027.05 1027.09
1017.91 1018.45 1018.75 1018.86 1018.53 1018.43 1018.19 1017.12 1016.79 1016.20 1016.25 1016.33 1016.36 1016.23 1016.77 1016.89 1016.79 1016.92 1017.13 1017.48 1017.60 1017.83 1018.15 1018.29 1018.60 1019.13 1019.57 1020.13 1020.66 1021.32 1021.76 1022.11 1022.14 1022.30 1022.67 1022.81 1022.98 1023.32 1023.77 1024.02 1024.24 1024.58 1024.97 1025.30 1025.61 1025.96 1026.43 1026.75 1027.00
1018.13 1018.38 1018.85 1019.32 1019.60 1019.28 1018.67 1017.06 1015.59 1015.76 1015.60 1015.38 1015.18 1015.73 1015.77 1015.94 1016.17 1016.40 1016.50 1016.90 1017.16 1017.07 1017.48 1017.61 1017.89 1018.47 1018.95 1019.40 1020.01 1020.31 1020.83 1021.46 1021.68 1021.75 1022.07 1022.31 1022.55 1022.79 1023.16 1023.39 1023.64 1023.98 1024.50 1024.92 1025.27 1025.65 1025.97 1026.38 1026.68
1018.02 1018.05 1019.08 1019.59 1020.17 1020.36 1019.34 1018.77 1015.09 1014.91 1014.65 1013.91 1014.42 1014.86 1014.83 1014.95 1015.26 1015.53 1015.77 1016.14 1016.30 1016.82 1017.24 1017.32 1017.45 1017.92 1018.44 1018.95 1019.10 1019.59 1020.10 1020.49 1021.01 1021.49 1021.84 1022.03 1022.12 1022.38 1022.60 1022.98 1023.44 1023.93 1024.27 1024.48 1024.66 1025.07 1025.58 1026.04 1026.43
1017.90 1018.56 1019.50 1020.35 1020.87 1020.71 1018.48 1018.50 1015.35 1014.13 1013.11 1013.65 1013.52 1013.68 1013.77 1014.16 1014.51 1015.06 1015.59 1016.18 1016.45 1016.93 1017.24 1017.50 1017.56 1017.84 1018.13 1018.60 1018.79 1019.06 1019.49 1020.12 1020.78 1021.22 1021.69 1021.72 1022.05 1022.28 1022.71 1022.90 1023.15 1023.41 1023.75 1024.07 1024.34 1024.61 1025.04 1025.50 1026.04
1017.61 1019.29 1020.96 1021.65 1021.66 1019.51 1018.07 1018.38 1014.17 1013.17 1013.06 1012.87 1012.81 1012.91 1013.08 1013.85 1014.50 1015.39 1015.98 1016.13 1016.56 1016.95 1017.16 1017.41 1017.49 1017.91 1018.18 1018.44 1018.40 1018.69 1018.91 1019.55 1020.13 1020.44 1020.99 1021.54 1022.03 1022.42 1022.65 1022.91 1023.26 1023.58 1023.74 1023.98 1024.39 1024.72 1025.20 1025.46 1025.95
1017.30 1017.96 1018.53 1020.33 1020.95 1019.52 1018.65 1017.02 1013.27 1012.74 1012.12 1012.32 1012.85 1012.97 1013.33 1013.90 1014.16 1014.73 1015.43 1015.95 1016.39 1016.79 1017.03 1017.25 1017.22 1017.56 1018.05 1018.44 1018.24 1018.42 1018.79 1019.08 1019.58 1020.23 1020.77 1021.48 1021.97 1022.54 1022.70 1023.21 1023.65 1024.09 1024.48 1024.74 1024.94 1025.51 1025.93 1026.24 1026.77
1016.96 1017.44 1017.54 1019.14 1020.95 1020.12 1017.95 1015.70 1013.47 1012.57 1012.41 1012.40 1012.61 1013.28 1013.17 1013.63 1014.41 1014.97 1015.42 1015.73 1016.10 1016.59 1016.82 1017.15 1017.33 1017.34 1017.87 1018.16 1018.32 1018.34 1018.69 1019.03 1019.41 1020.13 1020.77 1021.65 1022.21 1022.91 1023.28 1023.62 1024.34 1024.75 1024.90 1025.45 1026.03 1026.60 1027.10 1027.23 1027.55
1015.15 1015.96 1017.47 1018.39 1019.95 1019.64 1017.45 1015.64 1013.06 1012.33 1012.23 1011.96 1012.37 1012.63 1012.66 1013.32 1014.56 1015.17 1015.82 1016.19 1016.23 1016.71 1017.17 1017.34 1017.32 1017.86 1017.96 1018.23 1018.47 1018.38 1018.75 1019.06 1019.40 1020.19 1021.20 1021.94 1022.67 1022.93 1023.74 1024.35 1024.65 1025.10 1025.64 1025.90 1026.31 1027.23 1027.72 1027.71 1028.08
1015.17 1015.35 1016.15 1016.75 1018.11 1018.12 1017.10 1014.40 1012.19 1011.36 1011.47 1011.59 1011.36 1011.72 1012.57 1013.15 1014.18 1015.40 1016.02 1016.44 1016.51 1016.84 1017.39 1017.57 1017.47 1017.94 1018.44 1018.51 1018.93 1018.89 1019.17 1019.50 1019.88 1020.58 1021.50 1022.29 1022.91 1023.17 1024.16 1024.95 1025.28 1025.73 1026.26 1026.88 1026.96 1027.47 1028.02 1028.14 1028.63
1014.42 1014.40 1014.78 1015.51 1016.39 1016.70 1016.30 1012.88 1011.42 1010.88 1011.08 1011.48 1011.52 1012.10 1012.73 1013.64 1014.81 1015.58 1016.27 1016.84 1016.99 1017.20 1017.60 1017.83 1017.78 1018.15 1018.79 1018.97 1019.14 1019.31 1019.72 1019.88 1020.35 1021.06 1021.91 1022.76 1023.18 1023.79 1024.28 1025.19 1025.77 1026.26 1026.71 1027.12 1027.46 1027.85 1028.39 1028.52 1028.87
Thickness
5742 5744 5746 5736 5698 5687 5679 5691 5700 5700 5702 5704 5704 5697 5695 5692 5688 5671 5689 5689 5687 5686 5684 5683 5681 5679 5681 5683 5685 5686 5687 5686 5687 5687 5688 5688 5688 5688 5688 5688 5688 5687 5687 5685 5684 5682 5681 5679 5677
5739 5743 5735 5710 5680 5670 5673 5693 5695 5703 5702 5700 5702 5697 5692 5685 5691 5688 5687 5691 5689 5686 5684 5682 5680 5679 5679 5681 5683 5684 5685 5686 5685 5684 5685 5685 5685 5685 5684 5684 5685 5685 5684 5682 5681 5679 5677 5677 5675
5738 5737 5713 5687 5668 5673 5674 5697 5699 5702 5700 5705 5698 5697 5695 5689 5690 5691 5695 5694 5690 5686 5684 5684 5682 5679 5677 5679 5681 5682 5683 5684 5683 5682 5682 5682 5681 5681 5681 5681 5681 5681 5681 5679 5677 5676 5674 5673 5671
5726 5719 5697 5679 5683 5693 5693 5701 5702 5698 5705 5705 5699 5692 5698 5701 5696 5698 5697 5694 5691 5687 5683 5682 5680 5679 5677 5677 5679 5680 5681 5681 5682 5680 5679 5679 5678 5678 5678 5678 5678 5677 5677 5675 5673 5672 5672 5670 5668
5717 5702 5673 5670 5683 5692 5699 5701 5699 5699 5702 5703 5703 5689 5691 5699 5702 5699 5697 5695 5692 5687 5685 5682 5679 5679 5678 5677 5677 5678 5679 5679 5679 5678 5677 5677 5677 5676 5676 5676 5676 5675 5674 5673 5670 5669 5669 5667 5665
5695 5690 5664 5661 5675 5689 5699 5702 5705 5701 5699 5699 5696 5692 5692 5699 5701 5698 5697 5695 5692 5690 5687 5683 5680 5681 5680 5677 5677 5678 5678 5677 5677 5677 5676 5676 5674 5673 5673 5672 5672 5672 5671 5668 5666 5665 5664 5663 5662
5682 5672 5660 5663 5673 5688 5698 5706 5703 5700 5698 5702 5702 5688 5689 5696 5700 5701 5698 5695 5693 5693 5689 5687 5684 5684 5682 5681 5680 5679 5678 5677 5677 5676 5676 5675 5674 5672 5671 5670 5669 5668 5667 5665 5663 5662 5661 5660 5659
5678 5671 5655 5661 5668 5684 5699 5704 5706 5704 5702 5704 5707 5688 5688 5700 5700 5700 5697 5694 5692 5692 5691 5689 5687 5683 5682 5682 5681 5680 5679 5677 5677 5676 5675 5674 5672 5671 5670 5669 5668 5667 5666 5664 5662 5660 5658 5656 5655
5678 5658 5652 5664 5669 5684 5693 5696 5700 5705 5702 5702 5704 5703 5708 5704 5700 5698 5696 5695 5693 5692 5691 5689 5688 5687 5685 5686 5684 5682 5679 5678 5676 5675 5674 5673 5671 5670 5668 5667 5666 5665 5664 5663 5661 5659 5657 5657 5657
5661 5653 5660 5672 5678 5678 5690 5692 5694 5698 5698 5701 5701 5702 5704 5701 5700 5698 5699 5698 5696 5692 5690 5690 5690 5688 5685 5684 5685 5682 5680 5677 5676 5675 5673 5671 5670 5668 5666 5665 5664 5663 5662 5661 5659 5658 5657 5655 5655
5661 5653 5663 5667 5680 5681 5684 5691 5692 5691 5692 5699 5702 5698 5700 5701 5698 5698 5699 5700 5699 5699 5694 5691 5690 5688 5686 5684 5682 5679 5678 5677 5676 5674 5673 5671 5669 5667 5665 5664 5663 5662 5661 5660 5659 5657 5655 5654 5653
5657 5665 5667 5671 5677 5677 5678 5684 5690 5691 5703 5714 5713 5709 5704 5703 5702 5701 5698 5697 5697 5696 5697 5693 5693 5689 5688 5684 5682 5683 5682 5679 5676 5675 5673 5672 5670 5669 5666 5664 5662 5660 5660 5659 5658 5657 5655 5653 5651
5658 5664 5668 5675 5672 5674 5679 5681 5683 5691 5705 5707 5707 5703 5705 5703 5702 5702 5704 5701 5701 5699 5698 5695 5691 5691 5686 5685 5683 5681 5680 5679 5676 5673 5671 5670 5667 5665 5664 5663 5662 5660 5658 5657 5656 5654 5652 5651 5649
5660 5664 5666 5665 5667 5670 5669 5680 5687 5700 5700 5698 5702 5701 5703 5702 5704 5699 5699 5702 5697 5700 5699 5698 5695 5693 5689 5685 5684 5681 5679 5679 5678 5675 5672 5668 5665 5664 5663 5661 5661 5660 5659 5658 5655 5652 5649 5647 5645
5651 5647 5650 5654 5659 5662 5666 5665 5680 5698 5694 5694 5695 5696 5698 5700 5702 5701 5702 5703 5701 5699 5699 5698 5695 5692 5692 5689 5685 5683 5680 5676 5675 5675 5674 5671 5667 5665 5663 5661 5659 5657 5655 5652 5651 5650 5648 5645 5642
5637 5640 5634 5650 5649 5657 5660 5650 5683 5688 5689 5688 5688 5689 5693 5699 5703 5703 5700 5701 5700 5699 5696 5696 5696 5692 5692 5689 5687 5684 5680 5678 5675 5673 5673 5671 5668 5665 5663 5660 5657 5655 5652 5650 5647 5645 5643 5641 5639
5621 5623 5626 5636 5647 5652 5650 5653 5678 5680 5683 5686 5685 5687 5690 5693 5698 5702 5701 5702 5698 5697 5695 5698 5695 5691 5690 5688 5686 5683 5680 5678 5676 5673 5670 5669 5666 5664 5662 5659 5657 5653 5651 5649 5646 5642 5639 5637 5635
5613 5619 5629 5641 5645 5645 5646 5650 5667 5675 5673 5685 5684 5682 5683 5692 5701 5705 5700 5701 5699 5698 5696 5697 5697 5693 5689 5688 5687 5682 5678 5676 5676 5673 5670 5668 5666 5664 5661 5658 5655 5651 5646 5643 5641 5639 5636 5633 5631
5612 5614 5625 5630 5640 5636 5643 5648 5661 5667 5661 5668 5679 5679 5685 5692 5701 5700 5699 5700 5700 5697 5697 5696 5695 5691 5688 5684 5681 5680 5678 5676 5675 5674 5670 5666 5664 5663 5659 5656 5653 5650 5647 5643 5639 5635 5633 5629 5625
5608 5603 5604 5616 5628 5621 5631 5633 5650 5655 5663 5668 5677 5677 5683 5688 5689 5695 5697 5699 5703 5699 5697 5697 5698 5693 5689 5688 5684 5683 5678 5676 5676 5673 5671 5668 5665 5660 5658 5655 5651 5647 5643 5639 5636 5631 5626 5624 5620
5602 5600 5600 5602 5611 5617 5620 5628 5640 5656 5659 5666 5670 5680 5680 5682 5688 5690 5694 5696 5697 5699 5698 5699 5698 5695 5693 5689 5684 5679 5676 5673 5673 5671 5668 5666 5664 5660 5655 5653 5649 5646 5642 5637 5633 5628 5623 5619 5613
5587 5596 5597 5594 5591 5591 5607 5601 5638 5651 5654 5665 5677 5672 5681 5685 5686 5690 5696 5696 5697 5701 5697 5700 5699 5695 5693 5691 5686 5685 5681 5673 5670 5671 5668 5664 5661 5658 5655 5650 5647 5643 5638 5633 5627 5621 5617 5613 5610
5586 5593 5584 5582 5572 5570 5592 5587 5634 5644 5651 5675 5674 5672 5680 5687 5690 5692 5696 5696 5697 5693 5692 5695 5697 5694 5691 5688 5690 5685 5681 5676 5670 5668 5663 5661 5658 5655 5653 5648 5642 5636 5632 5628 5625 5620 5612 5606 5601
5580 5575 5572 5562 5556 5552 5600 5591 5614 5644 5670 5667 5672 5678 5684 5689 5688 5689 5689 5688 5689 5685 5685 5685 5688 5687 5687 5684 5685 5683 5680 5673 5668 5663 5658 5657 5653 5649 5644 5641 5637 5633 5628 5624 5619 5614 5609 5602 5595
5572 5555 5538 5537 5526 5578 5588 5571 5640 5651 5654 5663 5669 5676 5682 5679 5675 5671 5673 5677 5678 5678 5679 5679 5681 5679 5677 5678 5681 5678 5677 5671 5666 5664 5658 5652 5647 5641 5638 5632 5628 5624 5620 5616 5610 5604 5597 5592 5586
5560 5560 5548 5523 5525 5581 5565 5576 5644 5643 5656 5658 5653 5659 5662 5664 5669 5672 5672 5671 5672 5673 5674 5675 5677 5676 5672 5668 5673 5672 5669 5667 5663 5657 5652 5645 5639 5633 5629 5622 5617 5611 5605 5600 5596 5589 5582 5577 5570
5545 5543 5566 5540 5460 5517 5558 5594 5626 5631 5642 5648 5650 5648 5656 5655 5656 5658 5662 5665 5666 5667 5668 5667 5669 5671 5667 5664 5663 5664 5661 5659 5656 5649 5643 5635 5629 5620 5615 5611 5603 5598 5595 5587 5580 5573 5565 5561 5555
5557 5566 5544 5526 5513 5504 5560 5581 5623 5635 5638 5648 5645 5648 5655 5651 5648 5650 5649 5650 5655 5655 5654 5656 5660 5656 5657 5656 5654 5656 5652 5649 5646 5639 5630 5623 5616 5611 5603 5597 5593 5587 5581 5576 5570 5559 5552 5548 5540
5548 5545 5546 5551 5525 5535 5554 5583 5613 5636 5638 5641 5653 5651 5648 5646 5641 5636 5636 5636 5640 5641 5640 5642 5647 5645 5642 5643 5640 5642 5640 5636 5633 5627 5618 5611 5605 5602 5592 5584 5579 5573 5567 5559 5554 5547 5538 5532 5523
5552 5554 5559 5545 5544 5524 5531 5583 5620 5624 5623 5625 5637 5632 5627 5626 5622 5621 5621 5620 5625 5628 5627 5629 5632 5632 5629 5628 5628 5628 5625 5624 5620 5614 5605 5598 5593 5587 5582 5572 5565 5559 5552 5545 5538 5530 5522 5517 5511